Location: Rouyn
(48.2500°N, 79.0330°W)
Time: 06:49:53
(UTC-04:00)

ISS - Visible Passes

Search period start: 27 September 2022 00:00
Search period end: 07 October 2022 00:00
Orbit: 414 x 417 km, 51.6° (Epoch: 27 September)

Date Brightness Start Highest point End Pass type
(mag) Time Alt. Az. Time Alt. Az. Time Alt. Az.
27 Sep -3.8 20:45:11 10° WNW 20:48:33 71° NNE 20:49:01 59° ENE visible
28 Sep -3.4 19:56:28 10° WNW 19:59:48 57° NNE 20:02:11 17° E visible
28 Sep -1.7 21:33:17 10° WNW 21:35:04 26° W 21:35:04 26° W visible
29 Sep -3.6 20:44:30 10° WNW 20:47:50 64° SSW 20:48:15 56° SSE visible
30 Sep -3.8 19:55:44 10° WNW 19:59:07 90° E 20:01:28 18° ESE visible
30 Sep -1.1 21:32:59 10° W 21:34:21 17° WSW 21:34:21 17° WSW visible
01 Oct -2.3 20:43:54 10° W 20:46:53 30° SW 20:47:38 27° S visible
02 Oct -2.9 19:55:00 10° WNW 19:58:13 45° SSW 20:00:59 13° SE visible
03 Oct -1.1 20:43:54 10° WSW 20:45:42 14° SW 20:47:18 11° SSW visible
04 Oct -1.5 19:54:27 10° W 19:57:05 21° SW 19:59:42 10° SSE visible
